Location: Be Tobo
(6.6442°N, 10.6239°W)
Time: 00:37:03
(UTC+00:00)

ATLAS 2AS CENTAUR R/B - Pass Details

Date: 18 September 2020
Orbit: 939 x 1273 km, 63.7° (Epoch: 19 October)

Event Time Altitude Azimuth Distance (km) Brightness Sun altitude
Rises 20:48:22 0° 215° (SW) 4,026 6.1 -32.5°
Reaches altitude 10° 20:51:06 10° 219° (SW) 3,107 5.4 -33.2°
Maximum altitude 20:58:23 52° 294° (WNW) 1,498 3.6 -35.0°
Enters shadow 21:04:47 15° 6° (N) 2,851 4.9 -36.6°
